This demonstration page uses our WeatherBlox Daily Observations layout. Learn more.

Left ArrowRight Arrow

41.55636, -103.73856

Hourly Observations for October 18, 2018

Temp ( °F °C ) Dew Point ( °F °C ) Humidity (%) Winds ( mph kmh ) Pressure ( in mb ) Visibility ( mi km ) Precip ( " mm )
12:58 am 00:58 Mostly Clear 42 5.6 34 1.3 74 74 S 13 20 30.29 1026 10 16 N/A
1:58 am 01:58 Clear 40 4.2 35 1.4 82 82 S 14 22 30.28 1026 10 16 N/A
2:58 am 02:58 Clear 40 4.2 34 1.3 82 82 SSW 14 22 30.25 1024 10 16 N/A
3:58 am 03:58 Clear 39 3.7 34 1 83 83 SSW 14 22 30.23 1024 10 16 N/A
4:58 am 04:58 Clear 38 3.5 34 0.9 83 83 SSW 15 24 30.22 1023 10 16 N/A
5:58 am 05:58 Clear 38 3.2 33 0.8 84 84 SSW 13 20 30.25 1025 10 16 N/A
6:58 am 06:58 Clear 37 2.5 33 0.4 86 86 SSW 10 17 30.25 1025 10 16 N/A
7:58 am 07:58 Sunny 38 3.1 33 0.8 85 85 SSW 10 17 30.27 1025 10 16 N/A
8:58 am 08:58 Sunny 43 6.3 35 1.5 72 72 SW 12 19 30.26 1025 10 16 N/A
9:58 am 09:58 Sunny 49 9.3 35 1.9 60 60 SW 13 20 30.24 1024 10 16 N/A
10:58 am 10:58 Sunny 56 13.1 37 2.5 49 49 SSW 9 15 30.19 1022 10 16 N/A
11:58 am 11:58 Sunny 60 15.5 34 1.3 38 38 SSW 6 9 30.15 1021 10 16 N/A
12:58 pm 12:58 Sunny 61 16.3 31 -0.7 32 32 WSW 5 7 30.12 1020 10 16 N/A
1:58 pm 13:58 Sunny 64 17.8 31 -0.3 30 30 N N/A 30.08 1019 10 16 N/A
2:58 pm 14:58 Sunny 64 17.9 34 0.9 32 32 S 9 15 30.06 1018 10 16 N/A
3:58 pm 15:58 Sunny 64 17.6 32 0.2 31 31 S 10 17 30.05 1018 10 16 N/A
4:58 pm 16:58 Sunny 63 17.4 32 0.2 31 31 SSW 6 9 30.05 1018 10 16 N/A
5:58 pm 17:58 Sunny 59 15.2 33 0.6 37 37 S 5 7 30.06 1018 10 16 N/A
6:58 pm 18:58 Mostly Clear 53 11.5 39 4.1 61 61 S 7 11 30.10 1019 10 16 N/A
7:58 pm 19:58 Mostly Cloudy 47 8.6 40 4.5 76 76 SW 5 7 30.14 1021 10 16 N/A
8:58 pm 20:58 Mostly Cloudy 49 9.7 40 4.7 71 71 S 8 13 30.11 1020 10 16 N/A
9:58 pm 21:58 Mostly Cloudy 49 9.3 37 2.6 63 63 W 8 13 30.09 1019 10 16 N/A
10:58 pm 22:58 Clear 44 6.8 33 0.6 65 65 WNW 13 20 30.07 1018 10 16 N/A
11:58 pm 23:58 Clear 43 6.3 33 0.5 67 67 WNW 13 20 30.06 1018 10 16 N/A

Powered by AerisWeather